TFL6BH LGSM-LGMT

Flight info

Callsign TFL6BH
Flight time 0h 35m
Altitude 14000
Route ORMOS H59 BIFOK
Aircraft B38M/M-SADE2E3FGHIJ1RWXYZ/LB1

Departure

Time 2026-05-05 09:44
Airport Samos Airport (LGSM)

Arrival

Time 2026-05-05 10:20
Airport Mytilene International Airport (LGMT)
Time Latitude Longitude Altitude Speed Heading
2026-05-05 09:40 37.68995 26.91388 31 ft 0 kts 267°
2026-05-05 09:41 37.68996 26.91353 31 ft 9 kts 272°
2026-05-05 09:41 37.69003 26.91220 31 ft 21 kts 275°
2026-05-05 09:41 37.68994 26.91057 31 ft 13 kts 201°
2026-05-05 09:41 37.68931 26.90991 31 ft 14 kts 275°
2026-05-05 09:42 37.68941 26.90860 31 ft 16 kts 275°
2026-05-05 09:42 37.68952 26.90711 31 ft 18 kts 275°
2026-05-05 09:42 37.68963 26.90545 31 ft 20 kts 271°
2026-05-05 09:42 37.68972 26.90361 31 ft 22 kts 275°
2026-05-05 09:43 37.69001 26.90168 31 ft 22 kts 295°
2026-05-05 09:43 37.68988 26.90109 31 ft 7 kts 144°
2026-05-05 09:43 37.68979 26.90177 31 ft 9 kts 93°
2026-05-05 09:43 37.68966 26.90402 31 ft 63 kts 94°
2026-05-05 09:44 37.68914 26.91323 31 ft 144 kts 93°
2026-05-05 09:44 37.68795 26.92782 381 ft 177 kts 99°
2026-05-05 09:44 37.68588 26.94319 1373 ft 176 kts 109°
2026-05-05 09:44 37.67736 26.95334 2219 ft 181 kts 185°
2026-05-05 09:45 37.66759 26.94339 1924 ft 225 kts 234°
2026-05-05 09:45 37.65420 26.93144 2631 ft 229 kts 216°
2026-05-05 09:45 37.64033 26.92157 3676 ft 235 kts 210°
2026-05-05 09:45 37.62430 26.91579 4503 ft 246 kts 185°
2026-05-05 09:46 37.60718 26.91727 5463 ft 247 kts 172°
2026-05-05 09:46 37.58986 26.91943 6366 ft 256 kts 174°
2026-05-05 09:46 37.57172 26.92076 7168 ft 264 kts 176°
2026-05-05 09:46 37.55340 26.92129 8134 ft 265 kts 179°
2026-05-05 09:47 37.53482 26.92132 9036 ft 269 kts 180°
2026-05-05 09:47 37.51598 26.92078 9921 ft 275 kts 185°
2026-05-05 09:47 37.49698 26.91466 10413 ft 290 kts 212°
2026-05-05 09:47 37.48213 26.89738 10914 ft 297 kts 244°
2026-05-05 09:48 37.47613 26.87262 11370 ft 301 kts 275°
2026-05-05 09:48 37.48099 26.84715 11848 ft 303 kts 304°
2026-05-05 09:48 37.49544 26.82805 12439 ft 306 kts 330°
2026-05-05 09:48 37.51535 26.81806 13073 ft 313 kts 352°
2026-05-05 09:49 37.53716 26.81961 13496 ft 319 kts 15°
2026-05-05 09:49 37.55732 26.83151 13681 ft 322 kts 23°
2026-05-05 09:49 37.57762 26.84353 13820 ft 323 kts 22°
2026-05-05 09:49 37.59774 26.85527 13945 ft 324 kts 22°
2026-05-05 09:50 37.61821 26.86721 14043 ft 325 kts 22°
2026-05-05 09:50 37.63876 26.87910 14069 ft 324 kts 20°
2026-05-05 09:50 37.66044 26.88529 14067 ft 320 kts 359°
2026-05-05 09:50 37.68218 26.88054 14077 ft 319 kts 339°
2026-05-05 09:51 37.70109 26.86599 14070 ft 322 kts 320°
2026-05-05 09:51 37.71527 26.84404 14073 ft 326 kts 305°
2026-05-05 09:51 37.72754 26.81987 14085 ft 327 kts 305°
2026-05-05 09:51 37.73960 26.79557 14079 ft 327 kts 304°
2026-05-05 09:52 37.75156 26.77110 14086 ft 327 kts 304°
2026-05-05 09:52 37.76341 26.74658 14075 ft 327 kts 304°
2026-05-05 09:52 37.77521 26.72199 14085 ft 327 kts 304°
2026-05-05 09:52 37.78700 26.69734 14074 ft 327 kts 304°
2026-05-05 09:53 37.79874 26.67274 14081 ft 327 kts 304°
2026-05-05 09:53 37.81049 26.64811 14075 ft 327 kts 304°
2026-05-05 09:53 37.82222 26.62347 14076 ft 327 kts 304°
2026-05-05 09:53 37.83395 26.59882 14083 ft 327 kts 304°
2026-05-05 09:54 37.84569 26.57410 14083 ft 327 kts 304°
2026-05-05 09:54 37.85741 26.54940 14084 ft 328 kts 304°
2026-05-05 09:54 37.86911 26.52470 14086 ft 328 kts 304°
2026-05-05 09:54 37.88082 26.49998 14087 ft 328 kts 304°
2026-05-05 09:55 37.89255 26.47520 14089 ft 328 kts 304°
2026-05-05 09:55 37.90425 26.45046 14086 ft 328 kts 304°
2026-05-05 09:55 37.91595 26.42570 14088 ft 328 kts 304°
2026-05-05 09:55 37.92767 26.40090 14089 ft 328 kts 304°
2026-05-05 09:56 37.93921 26.37647 14088 ft 328 kts 304°
2026-05-05 09:56 37.95090 26.35171 14088 ft 328 kts 304°
2026-05-05 09:56 37.96260 26.32689 14088 ft 328 kts 304°
2026-05-05 09:56 37.97430 26.30207 14087 ft 328 kts 304°
2026-05-05 09:57 37.98601 26.27720 14087 ft 328 kts 304°
2026-05-05 09:57 37.99771 26.25234 14089 ft 328 kts 304°
2026-05-05 09:57 38.00940 26.22749 14089 ft 329 kts 304°
2026-05-05 09:57 38.02110 26.20258 14085 ft 329 kts 304°
2026-05-05 09:58 38.03278 26.17769 14089 ft 329 kts 304°
2026-05-05 09:58 38.04447 26.15278 14090 ft 329 kts 304°
2026-05-05 09:58 38.05617 26.12788 14086 ft 328 kts 305°
2026-05-05 09:58 38.07104 26.10650 14085 ft 323 kts 322°
2026-05-05 09:59 38.08798 26.08768 14084 ft 324 kts 321°
2026-05-05 09:59 38.10489 26.06877 14085 ft 324 kts 321°
2026-05-05 09:59 38.12182 26.04994 14084 ft 324 kts 321°
2026-05-05 09:59 38.13878 26.03112 14081 ft 324 kts 321°
2026-05-05 10:00 38.15576 26.01230 14097 ft 324 kts 321°
2026-05-05 10:00 38.17277 25.99343 14088 ft 325 kts 321°
2026-05-05 10:00 38.18977 25.97458 14074 ft 324 kts 321°
2026-05-05 10:00 38.20678 25.95570 14067 ft 325 kts 321°
2026-05-05 10:01 38.22380 25.93684 14080 ft 324 kts 322°
2026-05-05 10:01 38.24305 25.92258 14077 ft 320 kts 343°
2026-05-05 10:01 38.26494 25.91898 14085 ft 320 kts
2026-05-05 10:01 38.28658 25.92559 14089 ft 322 kts 19°
2026-05-05 10:02 38.30755 25.93587 14078 ft 323 kts 19°
2026-05-05 10:02 38.32844 25.94637 14071 ft 323 kts 20°
2026-05-05 10:02 38.34933 25.95707 14075 ft 323 kts 20°
2026-05-05 10:02 38.37015 25.96786 14078 ft 323 kts 20°
2026-05-05 10:03 38.39100 25.97874 14079 ft 323 kts 20°
2026-05-05 10:03 38.41180 25.98965 14079 ft 323 kts 20°
2026-05-05 10:03 38.43258 26.00054 14086 ft 323 kts 20°
2026-05-05 10:03 38.45335 26.01146 14072 ft 323 kts 20°
2026-05-05 10:04 38.47389 26.02226 14081 ft 323 kts 20°
2026-05-05 10:04 38.49458 26.03316 14081 ft 318 kts 20°
2026-05-05 10:04 38.51453 26.04367 14094 ft 303 kts 20°
2026-05-05 10:04 38.53358 26.05371 14087 ft 289 kts 20°
2026-05-05 10:05 38.55183 26.06333 13965 ft 280 kts 20°
2026-05-05 10:05 38.56964 26.07273 13732 ft 276 kts 20°
2026-05-05 10:05 38.58735 26.08208 13385 ft 275 kts 20°
2026-05-05 10:05 38.60497 26.09139 13050 ft 273 kts 20°
2026-05-05 10:06 38.62242 26.10061 12741 ft 270 kts 20°
2026-05-05 10:06 38.63964 26.10971 12474 ft 266 kts 20°
2026-05-05 10:06 38.65600 26.11837 12210 ft 267 kts 20°
2026-05-05 10:06 38.67334 26.12755 11916 ft 273 kts 20°
2026-05-05 10:07 38.69091 26.13686 11619 ft 274 kts 20°
2026-05-05 10:07 38.70850 26.14618 11320 ft 273 kts 20°
2026-05-05 10:07 38.72608 26.15550 11020 ft 273 kts 20°
2026-05-05 10:07 38.74358 26.16478 10725 ft 272 kts 20°
2026-05-05 10:08 38.76095 26.17400 10434 ft 269 kts 20°
2026-05-05 10:08 38.77801 26.18306 10281 ft 261 kts 20°
2026-05-05 10:08 38.79452 26.19183 10135 ft 253 kts 20°
2026-05-05 10:08 38.81072 26.20045 9845 ft 251 kts 20°
2026-05-05 10:09 38.82673 26.20896 9543 ft 248 kts 20°
2026-05-05 10:09 38.84263 26.21742 9253 ft 245 kts 20°
2026-05-05 10:09 38.85829 26.22577 8973 ft 243 kts 20°
2026-05-05 10:09 38.87378 26.23401 8705 ft 240 kts 20°
2026-05-05 10:10 38.88908 26.24216 8440 ft 236 kts 20°
2026-05-05 10:10 38.90420 26.25022 8186 ft 237 kts 20°
2026-05-05 10:10 38.91963 26.25845 7923 ft 243 kts 20°
2026-05-05 10:10 38.93510 26.26752 7637 ft 247 kts 31°
2026-05-05 10:11 38.94690 26.28371 7323 ft 255 kts 58°
2026-05-05 10:11 38.95120 26.30575 7159 ft 258 kts 85°
2026-05-05 10:11 38.94720 26.32811 7039 ft 260 kts 113°
2026-05-05 10:11 38.93723 26.34710 6960 ft 251 kts 121°
2026-05-05 10:12 38.92722 26.36491 6846 ft 241 kts 121°
2026-05-05 10:12 38.91756 26.38209 6699 ft 234 kts 121°
2026-05-05 10:12 38.90818 26.39869 6552 ft 226 kts 120°
2026-05-05 10:12 38.89907 26.41474 6419 ft 218 kts 120°
2026-05-05 10:13 38.89042 26.43000 6269 ft 206 kts 119°
2026-05-05 10:13 38.88519 26.44623 5971 ft 192 kts 92°
2026-05-05 10:13 38.88325 26.46299 5695 ft 188 kts 91°
2026-05-05 10:13 38.88143 26.47947 5425 ft 184 kts 91°
2026-05-05 10:14 38.87972 26.49557 5177 ft 180 kts 91°
2026-05-05 10:14 38.87996 26.51130 4917 ft 175 kts 72°
2026-05-05 10:14 38.88277 26.52656 4680 ft 177 kts 70°
2026-05-05 10:14 38.88572 26.54191 4426 ft 177 kts 71°
2026-05-05 10:15 38.88871 26.55722 4198 ft 177 kts 71°
2026-05-05 10:15 38.89244 26.57208 3911 ft 173 kts 53°
2026-05-05 10:15 38.89998 26.58374 3665 ft 170 kts 45°
2026-05-05 10:15 38.90793 26.59500 3430 ft 171 kts 45°
2026-05-05 10:16 38.91597 26.60622 3201 ft 171 kts 45°
2026-05-05 10:16 38.92392 26.61718 3040 ft 171 kts 45°
2026-05-05 10:16 38.93207 26.62835 2767 ft 171 kts 45°
2026-05-05 10:16 38.94027 26.63936 2479 ft 171 kts 41°
2026-05-05 10:17 38.95083 26.64560 2189 ft 168 kts
2026-05-05 10:17 38.96246 26.64447 1989 ft 168 kts 351°
2026-05-05 10:17 38.97401 26.64196 1750 ft 166 kts 349°
2026-05-05 10:17 38.98515 26.63934 1501 ft 160 kts 349°
2026-05-05 10:18 38.99583 26.63678 1326 ft 150 kts 344°
2026-05-05 10:18 39.00554 26.63265 1180 ft 145 kts 341°
2026-05-05 10:18 39.01522 26.62804 1023 ft 150 kts 336°
2026-05-05 10:18 39.02453 26.62315 746 ft 141 kts 337°
2026-05-05 10:19 39.03318 26.61814 475 ft 132 kts 333°
2026-05-05 10:19 39.04101 26.61236 253 ft 127 kts 328°
2026-05-05 10:19 39.04816 26.60631 119 ft 124 kts 325°
2026-05-05 10:19 39.05559 26.60046 28 ft 121 kts 326°
2026-05-05 10:20 39.06122 26.59590 36 ft 65 kts 328°
2026-05-05 10:20 39.06381 26.59381 41 ft 37 kts 328°
2026-05-05 10:20 39.06600 26.59206 47 ft 36 kts 328°
2026-05-05 10:20 39.06695 26.59165 47 ft 7 kts 322°
2026-05-05 10:21 39.06688 26.59127 50 ft 3 kts 196°
2026-05-05 10:21 39.06665 26.59144 49 ft 9 kts 144°
2026-05-05 10:21 39.06558 26.59239 46 ft 27 kts 148°
2026-05-05 10:21 39.06376 26.59385 41 ft 34 kts 148°
2026-05-05 10:22 39.06201 26.59590 35 ft 30 kts 114°
2026-05-05 10:22 39.06147 26.59734 27 ft 10 kts 120°
2026-05-05 10:22 39.06157 26.59811 26 ft 7 kts 58°
2026-05-05 10:22 39.06168 26.59834 26 ft 2 kts 58°
2026-05-05 10:23 39.06172 26.59842 25 ft 0 kts 58°